Weather History for Souda, Greece

Change the Weather History Date:

Tuesday, December 4, 2012

  Actual Average Record
Temperature  
Mean Temperature 56 °F -  
Max Temperature 59 °F 61 °F 73 °F (2008)
Min Temperature 53 °F 49 °F 47 °F (2013)
Degree Days  
Heating Degree Days 9    
Growing Degree Days 6 (Base 50)    
Moisture  
Dew Point 41 °F    
Average Humidity 57    
Maximum Humidity 82    
Minimum Humidity 37    
Precipitation  
Precipitation 0.00 in 0.13 in - ()
Sea Level Pressure  
Sea Level Pressure 29.81 in    
Wind  
Wind Speed 23 mph ()    
Max Wind Speed 37 mph    
Max Gust Speed 53 mph    
Visibility 6.2 miles    
Events Rain    
Averages and records for this station are not official NWS values.
T = Trace of Precipitation, MM = Missing Value Source: Averaged Metar Reports

Daily Weather History Graph

Daily Weather History Graph

Search for Another Location

Airport:

Trip Planner

Search our weather history database for the weather conditions in past years. The results will help you decide how hot, cold, wet, or windy it might be!

Date:

Astronomy

Dec. 04, 2012 Rise Set
Actual Time 7:17 AM EET 5:10 PM EET
Civil Twilight 6:49 AM EET 5:38 PM EET
Nautical Twilight 6:17 AM EET 6:09 PM EET
Astronomical Twilight 5:46 AM EET 6:40 PM EET
Moon 10:31 PM EET (12/4) 11:08 AM EET (12/4)
Length of Visible Light 10h 49m
Length of Day
9h 53m
Waning Gibbous, 72% of the Moon is Illuminated
Dec 4
Waning Gibbous
Dec 6
Last Quarter
Dec 13
New
Dec 20
First Quarter
Dec 28
Full

Hourly Weather History & Observations

Time (EET) Temp. Dew Point Humidity Pressure Visibility Wind Dir Wind Speed Gust Speed Precip Events Conditions
12:20 AM 55.4 °F 48.2 °F 77% 29.74 in 6.2 mi West 25.3 mph 36.8 mph N/A   Mostly Cloudy
12:50 AM 55.4 °F 48.2 °F 77% 29.71 in 6.2 mi West 23.0 mph 34.5 mph N/A   Mostly Cloudy
1:20 AM 55.4 °F 50.0 °F 82% 29.71 in 5.0 mi West 29.9 mph 46.0 mph N/A Rain Light Rain
1:50 AM 55.4 °F 44.6 °F 67% 29.74 in 6.2 mi WNW 29.9 mph 43.7 mph N/A   Mostly Cloudy
2:00 AM 55 °F 45 °F 60% 29.75 in 6 mi WNW 29.9 mph - - Rain Light Rain
2:20 AM 55.4 °F 44.6 °F 67% 29.74 in 6.2 mi WNW 29.9 mph 43.7 mph N/A   Mostly Cloudy
2:50 AM 55.4 °F 44.6 °F 67% 29.77 in 6.2 mi West 27.6 mph 43.7 mph N/A   Mostly Cloudy
3:20 AM 55.4 °F 44.6 °F 67% 29.77 in 6.2 mi WNW 29.9 mph 48.3 mph N/A   Mostly Cloudy
3:50 AM 55.4 °F 46.4 °F 72% 29.74 in 6.2 mi West 32.2 mph 52.9 mph N/A   Mostly Cloudy
4:20 AM 55.4 °F 46.4 °F 72% 29.74 in 6.2 mi West 32.2 mph 51.8 mph N/A   Mostly Cloudy
4:50 AM 55.4 °F 42.8 °F 63% 29.74 in 6.2 mi West 32.2 mph 48.3 mph N/A   Mostly Cloudy
5:20 AM 55.4 °F 42.8 °F 63% 29.74 in 6.2 mi WNW 29.9 mph 43.7 mph N/A   Mostly Cloudy
5:50 AM 55.4 °F 41.0 °F 58% 29.77 in 6.2 mi WNW 32.2 mph 43.7 mph N/A   Mostly Cloudy
6:20 AM 55.4 °F 41.0 °F 58% 29.77 in 6.2 mi West 34.5 mph 48.3 mph N/A   Scattered Clouds
6:50 AM 55.4 °F 39.2 °F 54% 29.77 in 6.2 mi West 34.5 mph 46.0 mph N/A   Scattered Clouds
7:20 AM 55.4 °F 39.2 °F 54% 29.77 in 6.2 mi West 34.5 mph 46.0 mph N/A   Scattered Clouds
7:50 AM 55.4 °F 39.2 °F 54% 29.80 in 6.2 mi West 33.4 mph 46.0 mph N/A   Scattered Clouds
8:00 AM 55 °F 39 °F 43% 29.80 in 6 mi West 33.4 mph - -   Partly Cloudy
8:20 AM 55.4 °F 39.2 °F 54% 29.80 in 6.2 mi WNW 34.5 mph 49.5 mph N/A   Scattered Clouds
8:50 AM 55.4 °F 37.4 °F 51% 29.80 in 6.2 mi West 36.8 mph 50.6 mph N/A   Scattered Clouds
9:20 AM 55.4 °F 37.4 °F 51% 29.80 in 6.2 mi West 34.5 mph 46.0 mph N/A   Scattered Clouds
9:50 AM 57.2 °F 37.4 °F 48% 29.80 in 6.2 mi WNW 32.2 mph 43.7 mph N/A   Scattered Clouds
10:20 AM 57.2 °F 37.4 °F 48% 29.83 in 6.2 mi WNW 32.2 mph 44.9 mph N/A   Scattered Clouds
10:50 AM 57.2 °F 37.4 °F 48% 29.86 in 6.2 mi WNW 28.8 mph 40.3 mph N/A   Scattered Clouds
11:20 AM 57.2 °F 37.4 °F 48% 29.86 in 6.2 mi West 27.6 mph 39.1 mph N/A   Scattered Clouds
11:50 AM 57.2 °F 37.4 °F 48% 29.86 in 6.2 mi West 24.2 mph 35.7 mph N/A   Scattered Clouds
12:20 PM 59.0 °F 37.4 °F 45% 29.86 in 6.2 mi WNW 20.7 mph 32.2 mph N/A   Scattered Clouds
12:50 PM 59.0 °F 39.2 °F 48% 29.83 in 6.2 mi WNW 19.6 mph 31.1 mph N/A   Scattered Clouds
1:20 PM 59.0 °F 39.2 °F 48% 29.83 in 6.2 mi West 20.7 mph 32.2 mph N/A   Scattered Clouds
1:50 PM 59.0 °F 41.0 °F 51% 29.83 in 6.2 mi WNW 20.7 mph 32.2 mph N/A   Mostly Cloudy
2:00 PM 60 °F 41 °F 37% 29.85 in 6 mi WNW 20.7 mph - -   Mostly Cloudy
2:20 PM 59.0 °F 41.0 °F 51% 29.83 in 6.2 mi WNW 20.7 mph 32.2 mph N/A   Mostly Cloudy
2:50 PM 59.0 °F 39.2 °F 48% 29.80 in 6.2 mi WNW 17.3 mph 28.8 mph N/A   Scattered Clouds
3:20 PM 59.0 °F 39.2 °F 48% 29.80 in 6.2 mi WNW 17.3 mph 28.8 mph N/A   Scattered Clouds
3:50 PM 59.0 °F 39.2 °F 48% 29.83 in 6.2 mi West 20.7 mph - N/A   Scattered Clouds
4:20 PM 59.0 °F 39.2 °F 48% 29.83 in 6.2 mi West 18.4 mph - N/A   Scattered Clouds
4:50 PM 55.4 °F 41.0 °F 58% 29.83 in 6.2 mi West 15.0 mph - N/A   Scattered Clouds
5:20 PM 55.4 °F 41.0 °F 58% 29.83 in 6.2 mi West 15.0 mph - N/A   Scattered Clouds
5:50 PM 55.4 °F 41.0 °F 58% 29.83 in 6.2 mi West 8.1 mph - N/A   Scattered Clouds
6:20 PM 55.4 °F 41.0 °F 58% 29.83 in 6.2 mi West 8.1 mph - N/A   Scattered Clouds
6:50 PM 55.4 °F 41.0 °F 58% 29.86 in 6.2 mi WSW 10.4 mph - N/A   Partly Cloudy
7:20 PM 55.4 °F 41.0 °F 58% 29.86 in 6.2 mi WSW 8.1 mph - N/A   Partly Cloudy
7:50 PM 53.6 °F 41.0 °F 62% 29.86 in 6.2 mi WSW 9.2 mph - N/A   Partly Cloudy
8:00 PM 54 °F 40 °F 49% 29.88 in 6 mi WSW 9.2 mph - -   Scattered Clouds
8:50 PM 53.6 °F 42.8 °F 67% 29.86 in 6.2 mi WSW 11.5 mph - N/A   Partly Cloudy
9:50 PM 53.6 °F 42.8 °F 67% 29.86 in 6.2 mi West 10.4 mph - N/A   Partly Cloudy
10:20 PM 53.6 °F 42.8 °F 67% 29.86 in 6.2 mi West 12.7 mph - N/A   Partly Cloudy
10:50 PM 55.4 °F 42.8 °F 63% 29.86 in 6.2 mi WSW 10.4 mph - N/A   Partly Cloudy
11:20 PM 55.4 °F 42.8 °F 63% 29.86 in 6.2 mi WSW 8.1 mph - N/A   Partly Cloudy
11:50 PM 55.4 °F 42.8 °F 63% 29.83 in 6.2 mi WSW 11.5 mph - N/A   Partly Cloudy